Regional Weather Roundup
Issued by NWS

Home | Current Version | Previous Version | Text Only | Print | Product List | Glossary Off
Versions: 1 2 3 4 5 6 7 8 9 10 11 12 13 14 15 16 17 18 19 20 21 22 23 24 25 26 27 28 29 30 31 32 33 34 35 36 37 38 39 40 41 42 43 44 45 46 47 48 49 50

000
ASUS43 KIND 231609
RWRIN

WEATHER ROUNDUP FOR INDIANA
NATIONAL WEATHER SERVICE INDIANAPOLIS IN
1200 PM EDT SAT SEP 23 2017

NOTE: "FAIR" INDICATES FEW OR NO CLOUDS BELOW 12,000 FEET WITH NO
SIGNIFICANT WEATHER AND/OR OBSTRUCTIONS TO VISIBILITY.

* - STATION DOES NOT REPORT WEATHER SUCH AS PRECIPITATION OR FOG.

+ - STATION NOT QUALITY CONTROLLED BY THE NATIONAL WEATHER SERVICE.
    USE DATA WITH CAUTION...ESPECIALLY DEWPOINT AND RELATIVE
    HUMIDITY OBSERVATIONS.

INZ001>003-010>013-019-020-231700-
NORTHWEST INDIANA

CITY           SKY/WX    TMP DP  RH WIND       PRES   REMARKS
GARY /AIRPORT/ SUNNY     88  64  45 SE6       30.12S
KNOX *+        SUNNY     86  68  54 CALM      30.12F
LA PORTE +     SUNNY     85  69  58 E3        30.14S
MICHIGAN CITY+ SUNNY     86  70  58 CALM      30.12F
MONTICELLO +   SUNNY     85  67  55 CALM      30.12S
RENSSELAER +   SUNNY     84  61  45 E3        30.13S
VALPARAISO     SUNNY     88  70  55 CALM      30.13S

$$

LMZ046-743>745-231700-
SOUTHERN LAKE MICHIGAN

STATION/POSITION TIME  TEMP    WIND        PRES    WAVE
                       AIR SEA DIR/SP/G            HT
                 (UTC) (F)     (DEG/KT/KT) (MB)    (FT)
BURNS HARBOR     1540   82      CALM  /  3 1020.0S
MICHIGAN CITY    1540   80      20/  2/  2   N/A
5NW MICH CITY    1600   75 73   60/  4/  4   N/A     0

$$

INZ004-005-014>016-021>024-231700-
NORTH CENTRAL INDIANA

CITY           SKY/WX    TMP DP  RH WIND       PRES   REMARKS
ELKHART        SUNNY     82  68  61 CALM      30.14S
GOSHEN         SUNNY     85  66  53 VRB3      30.14S
LOGANSPORT +   SUNNY     84  68  58 CALM      30.14S
PERU/GRISSOM   SUNNY     84  70  63 CALM      30.13S
SOUTH BEND     SUNNY     85  70  60 VRB3      30.14S
WARSAW +       SUNNY     81  70  69 CALM      30.14S

$$

INZ006>009-017-018-025>027-231700-
NORTHEAST INDIANA

CITY           SKY/WX    TMP DP  RH WIND       PRES   REMARKS
AUBURN +       SUNNY     82  66  57 CALM      30.16S
FORT WAYNE     SUNNY     83  69  62 CALM      30.15S
HUNTINGTON +   SUNNY     83  69  61 CALM      30.14S
KENDALLVILLE + SUNNY     83  68  60 CALM      30.16S

$$

INZ028-029-035-036-043>045-051>053-231700-
WEST CENTRAL INDIANA

CITY           SKY/WX    TMP DP  RH WIND       PRES   REMARKS
CRAWFORDSVL +  SUNNY     82  66  57 NW3       30.13
GREENCASTLE +  SUNNY     84  64  51 S3        30.14S
LAFAYETTE      SUNNY     83  71  67 CALM      30.12S
TERRE HAUTE    SUNNY     87  67  51 E5        30.12F

$$

INZ030>032-037>040-046>048-054>057-064-065-231700-
CENTRAL INDIANA

CITY           SKY/WX    TMP DP  RH WIND       PRES   REMARKS
ANDERSON       SUNNY     82  66  57 CALM      30.15S
CP ATTERBURY + SUNNY     84  63  48 SE3       30.14F
FISHERS *+     SUNNY     84  72  65 CALM      30.14S
FRANKFORT +    PTSUNNY   88  69  53 CALM      30.15S
GREENWOOD *+   SUNNY     87  69  55 CALM      30.15S
INDIANAPOLIS   MOSUNNY   86  66  51 CALM      30.14S
-EAGLE CREEK   SUNNY     85  66  53 NW5       30.13S
KOKOMO +       SUNNY     86  69  56 CALM      30.15S
MARION +       SUNNY     82  68  61 CALM      30.14F
MT COMFORT *+  SUNNY     84  66  54 CALM      30.15S
SHELBYVILLE    SUNNY     86  64  47 SW5       30.13F
ZIONSVILLE +   SUNNY     83  69  63 CALM      30.15S

$$

INZ033-034-041-042-049-050-058-059-231700-
EAST CENTRAL INDIANA

CITY           SKY/WX    TMP DP  RH WIND       PRES   REMARKS
MUNCIE         SUNNY     86  67  52 CALM      30.14F
RICHMOND +     SUNNY     82  64  54 CALM      30.16S

$$

INZ060-061-067>069-081>083-085>088-231700-
SOUTHWEST INDIANA

CITY           SKY/WX    TMP DP  RH WIND       PRES   REMARKS
EVANSVILLE     SUNNY     84  65  52 E5        30.11S
WASHINGTON +   SUNNY     86  60  41 SE6       30.11F

$$

INZ062-063-066-070>080-084-089>092-231700-
SOUTH CENTRAL AND SOUTHEAST INDIANA

CITY           SKY/WX    TMP DP  RH WIND       PRES   REMARKS
BEDFORD +      SUNNY     84  64  51 E5        30.12F
BLOOMINGTON    SUNNY     86  63  45 VRB5      30.13F
MADISON *+     SUNNY     82  63  51 E6        30.15F
NORTH VERNON + SUNNY     84  64  51 E3        30.14S
SEYMOUR +      SUNNY     86  63  45 E7        30.12F

$$





USA.gov is the U.S. government's official web portal to all federal, state and local government web resources and services.